OK1UOJ Weather Reports


Display with metric or nautical units.
time (UTC)temp
F
wind
direction
speed
MPH
gust
MPH
rain 1hr
in
rain 24hr
in
rain mn
in
humidity
%
barometer
mb
20260905175241 64 282 1.0 2.0 0.00 0.00 0.00 10 1022.2
20260905174803 65 347 2.0 3.0 0.00 0.00 0.00 96 1022.1
20260905173848 65 323 3.0 4.0 0.00 0.00 0.00 93 1022.0
20260905173410 65 338 3.0 4.0 0.00 0.00 0.00 92 1021.9
20260905172932 65 334 3.0 5.0 0.00 0.00 0.00 91 1021.9
20260905172454 66 330 3.0 7.0 0.00 0.00 0.00 90 1021.8
20260905172016 66 324 3.0 4.0 0.00 0.00 0.00 90 1021.8
20260905171538 66 318 4.0 6.0 0.00 0.00 0.00 89 1021.7
20260905171100 66 338 3.0 7.0 0.00 0.00 0.00 89 1021.7
20260905170144 66 331 5.0 8.0 0.00 0.00 0.00 86 1021.6
20260905165707 66 328 4.0 7.0 0.00 0.00 0.00 88 1021.6
20260905165229 67 321 4.0 6.0 0.00 0.00 0.00 90 1021.6
20260905164751 67 336 3.0 5.0 0.00 0.00 0.00 90 1021.5
20260905164313 67 336 5.0 7.0 0.00 0.00 0.00 88 1021.4
20260905163835 67 322 5.0 8.0 0.00 0.00 0.00 89 1021.4
20260905163357 67 338 5.0 7.0 0.00 0.00 0.00 88 1021.3
20260905162919 67 321 6.0 7.0 0.00 0.00 0.00 85 1021.3
20260905162441 67 321 4.0 7.0 0.00 0.00 0.00 89 1021.3
20260905162003 67 319 5.0 8.0 0.00 0.00 0.00 89 1021.2
20260905161525 67 327 6.0 8.0 0.00 0.00 0.00 87 1021.1
20260905161047 67 318 5.0 7.0 0.00 0.00 0.00 88 1021.1
20260905160609 68 325 6.0 9.0 0.00 0.00 0.00 85 1021.0
20260905155653 68 327 5.0 8.0 0.00 0.00 0.00 83 1021.0
20260905155215 68 338 4.0 7.0 0.00 0.00 0.00 81 1020.9
20260905154737 68 320 5.0 11.0 0.00 0.00 0.00 83 1021.0
20260905154259 68 342 4.0 7.0 0.00 0.00 0.00 86 1020.9
20260905153821 68 331 5.0 8.0 0.00 0.00 0.00 85 1020.9
20260905153343 68 322 6.0 7.0 0.00 0.00 0.00 85 1020.8
20260905152427 69 352 5.0 9.0 0.00 0.00 0.00 82 1020.8
20260905151948 69 322 4.0 7.0 0.00 0.00 0.00 83 1020.8
20260905151510 69 340 4.0 7.0 0.00 0.00 0.00 86 1020.7
20260905151032 69 341 4.0 6.0 0.00 0.00 0.00 85 1020.8
20260905150554 69 333 5.0 0.0 0.00 0.00 0.00 86 1020.8
20260905150116 69 318 5.0 11.0 0.00 0.00 0.00 85 1020.8
20260905145638 69 303 4.0 11.0 0.00 0.00 0.00 89 1020.7
20260905145200 69 326 2.0 4.0 0.00 0.00 0.00 92 1020.7
20260905144722 69 319 5.0 11.0 0.00 0.00 0.00 89 1020.7
20260905144244 69 321 3.0 7.0 0.00 0.00 0.00 90 1020.7
20260905143806 69 315 4.0 6.0 0.00 0.00 0.00 89 1020.7
20260905143328 69 331 4.0 8.0 0.00 0.00 0.00 89 1020.8
20260905142850 69 295 2.0 4.0 0.00 0.00 0.00 93 1020.8
20260905142412 69 320 4.0 10.0 0.00 0.00 0.00 96 1020.7
20260905141455 68 333 4.0 7.0 0.00 0.00 0.00 94 1020.8
20260905141017 69 327 5.0 7.0 0.00 0.00 0.00 96 1020.9
20260905140539 70 300 3.0 7.0 0.00 0.00 0.00 91 1020.8
20260905135622 70 296 2.0 4.0 0.00 0.00 0.00 98 1020.7
20260905134706 70 300 2.0 3.0 0.00 0.00 0.00 10 1020.9
20260905134227 71 317 2.0 3.0 0.00 0.00 0.00 95 1020.9
20260905133749 70 310 4.0 11.0 0.00 0.00 0.00 99 1020.9
20260905133310 70 286 2.0 4.0 0.00 0.00 0.00 10 1020.9
20260905132832 70 343 3.0 7.0 0.00 0.00 0.00 10 1021.0
20260905132354 69 334 6.0 0.0 0.00 0.00 0.00 10 1021.0
20260905131915 71 329 3.0 4.0 0.00 0.00 0.00 99 1021.0
20260905131437 70 324 4.0 7.0 0.00 0.00 0.00 10 1021.0
20260905130958 69 317 6.0 10.0 0.00 0.00 0.00 10 1021.1
20260905130042 70 288 2.0 3.0 0.00 0.00 0.00 99 1021.1
20260905125125 72 303 2.0 3.0 0.00 0.00 0.00 95 1021.1
20260905124646 70 309 4.0 7.0 0.00 0.00 0.00 10 1021.1
20260905124208 69 337 4.0 6.0 0.00 0.00 0.00 10 1021.2
20260905123730 68 307 3.0 11.0 0.00 0.00 0.00 10 1021.1
20260905121855 72 313 2.0 4.0 0.00 0.00 0.00 91 1021.4
20260905121417 72 296 2.0 5.0 0.00 0.00 0.00 91 1021.3
20260905120938 70 284 2.0 3.0 0.00 0.00 0.00 10 1021.4
20260905120500 69 283 5.0 9.0 0.00 0.00 0.00 10 1021.4
20260905120021 69 329 3.0 5.0 0.00 0.00 0.00 10 1021.5
20260905115543 71 290 2.0 4.0 0.00 0.00 0.00 90 1021.6
20260905115104 72 242 3.0 7.0 0.00 0.00 0.00 96 1021.5
20260905114625 72 283 2.0 3.0 0.00 0.00 0.00 91 1021.4
20260905114147 71 303 3.0 6.0 0.00 0.00 0.00 99 1021.6
20260905113708 71 337 2.0 5.0 0.00 0.00 0.00 96 1021.5
20260905113229 72 325 2.0 6.0 0.00 0.00 0.00 87 1021.6
20260905112751 73 290 2.0 3.0 0.00 0.00 0.00 94 1021.5
20260905112312 72 300 2.0 6.0 0.00 0.00 0.00 99 1021.6
20260905111354 71 305 2.0 3.0 0.00 0.00 0.00 10 1021.5
20260905110916 69 277 3.0 9.0 0.00 0.00 0.00 10 1021.5
20260905105959 70 274 3.0 6.0 0.00 0.00 0.00 10 1021.6
20260905105520 70 288 2.0 3.0 0.00 0.00 0.00 10 1021.6
20260905105042 69 303 3.0 5.0 0.00 0.00 0.00 10 1021.5
20260905104603 69 312 2.0 4.0 0.00 0.00 0.00 10 1021.4
20260905103646 69 332 2.0 4.0 0.00 0.00 0.00 10 1021.5
20260905103208 69 307 3.0 4.0 0.00 0.00 0.00 10 1021.5
20260905102730 69 299 2.0 3.0 0.00 0.00 0.00 10 1021.4
20260905102251 68 279 2.0 3.0 0.00 0.00 0.00 10 1021.4
20260905101813 68 289 2.0 4.0 0.00 0.00 0.00 10 1021.3
20260905101335 67 281 2.0 3.0 0.00 0.00 0.00 10 1021.4
20260905100857 65 286 2.0 3.0 0.00 0.00 0.00 10 1021.4
20260905100419 64 302 2.0 4.0 0.00 0.00 0.00 10 1021.5
20260905095941 64 310 2.0 3.0 0.00 0.00 0.00 10 1021.4
20260905095503 65 297 3.0 6.0 0.00 0.00 0.00 10 1021.4
20260905095024 66 300 2.0 3.0 0.00 0.00 0.00 10 1021.5
20260905094546 67 268 1.0 4.0 0.00 0.00 0.00 10 1021.6
20260905094108 67 308 2.0 5.0 0.00 0.00 0.00 10 1021.6
20260905093629 68 323 3.0 8.0 0.00 0.00 0.00 10 1021.6
20260905093151 69 292 2.0 3.0 0.00 0.00 0.00 10 1021.6
20260905092713 68 286 2.0 3.0 0.00 0.00 0.00 10 1021.5
20260905092234 66 311 2.0 3.0 0.00 0.00 0.00 10 1021.6
20260905091756 65 309 3.0 8.0 0.00 0.00 0.00 10 1021.5
20260905090840 64 321 4.0 7.0 0.00 0.00 0.00 10 1021.6
20260905085923 67 324 2.0 3.0 0.00 0.00 0.00 10 1021.6
20260905085445 66 296 2.0 3.0 0.00 0.00 0.00 10 1021.5
20260905085007 65 305 4.0 12.0 0.00 0.00 0.00 10 1021.5
20260905084528 65 338 4.0 8.0 0.00 0.00 0.00 10 1021.4
20260905084050 66 324 2.0 5.0 0.00 0.00 0.00 10 1021.4
20260905083612 66 285 2.0 4.0 0.00 0.00 0.00 10 1021.4
20260905083134 66 282 2.0 3.0 0.00 0.00 0.00 10 1021.3
20260905082655 65 330 2.0 4.0 0.00 0.00 0.00 10 1021.3
20260905082217 65 278 2.0 5.0 0.00 0.00 0.00 10 1021.3
20260905081739 63 301 2.0 4.0 0.00 0.00 0.00 10 1021.3
20260905081301 62 301 2.0 4.0 0.00 0.00 0.00 10 1021.3
20260905080823 63 257 1.0 3.0 0.00 0.00 0.00 10 1021.2
20260905080345 63 297 2.0 2.0 0.00 0.00 0.00 10 1021.1
20260905075907 63 291 2.0 4.0 0.00 0.00 0.00 10 1021.0
20260905075429 63 280 2.0 3.0 0.00 0.00 0.00 10 1021.0
20260905074951 64 298 2.0 3.0 0.00 0.00 0.00 10 1021.0
20260905074513 62 293 2.0 3.0 0.00 0.00 0.00 10 1021.1
20260905074035 61 323 3.0 4.0 0.00 0.00 0.00 10 1021.0
20260905073557 61 312 2.0 4.0 0.00 0.00 0.00 10 1020.9
20260905073119 61 281 1.0 3.0 0.00 0.00 0.00 10 1020.8
20260905072641 61 315 2.0 3.0 0.00 0.00 0.00 10 1020.8
20260905072204 62 294 2.0 3.0 0.00 0.00 0.00 10 1020.8
20260905071726 62 275 1.0 2.0 0.00 0.00 0.00 10 1020.9
20260905071248 63 224 2.0 3.0 0.00 0.00 0.00 10 1020.8
20260905070332 64 205 1.0 3.0 0.00 0.00 0.00 10 1020.9
20260905065854 62 241 1.0 3.0 0.00 0.00 0.00 10 1021.0
20260905065416 61 223 2.0 4.0 0.00 0.00 0.00 10 1021.0
20260905064938 60 204 2.0 4.0 0.00 0.00 0.00 10 1020.9
20260905064501 59 202 2.0 3.0 0.00 0.00 0.00 10 1020.9
20260905064023 58 216 2.0 3.0 0.00 0.00 0.00 10 1021.0
20260905063545 57 221 1.0 3.0 0.00 0.00 0.00 10 1021.0
20260905063108 56 213 1.0 2.0 0.00 0.00 0.00 10 1020.9
20260905062630 56 209 0.0 2.0 0.00 0.00 0.00 10 1020.9
20260905062153 56 190 0.0 1.0 0.00 0.00 0.00 10 1020.8
20260905061715 56 203 0.0 0.0 0.00 0.00 0.00 10 1020.7
20260905060800 55 198 0.0 0.0 0.00 0.00 0.00 10 1020.8
20260905060322 55 220 0.0 1.0 0.00 0.00 0.00 10 1020.7
20260905055407 55 288 0.0 2.0 0.00 0.00 0.00 10 1020.7
20260905054452 55 209 1.0 2.0 0.00 0.00 0.00 10 1020.5
20260905054015 55 216 2.0 3.0 0.00 0.00 0.00 10 1020.5
20260905053537 55 220 2.0 4.0 0.00 0.00 0.00 10 1020.1
20260905053100 55 200 2.0 4.0 0.00 0.00 0.00 10 1020.1
20260905052622 55 197 2.0 4.0 0.00 0.00 0.00 10 1020.0
20260905052145 55 221 2.0 4.0 0.00 0.00 0.00 10 1020.0
20260905051707 55 249 1.0 2.0 0.00 0.00 0.00 10 1020.1
20260905051230 55 221 3.0 5.0 0.00 0.00 0.00 10 1019.8
20260905050752 55 210 4.0 5.0 0.00 0.00 0.00 10 1019.1
20260905050315 55 216 4.0 5.0 0.00 0.00 0.00 10 1019.0
20260905045837 55 216 3.0 3.0 0.00 0.00 0.00 10 1019.2
20260905045400 55 216 3.0 4.0 0.00 0.00 0.00 10 1019.7
20260905044922 55 218 3.0 3.0 0.00 0.00 0.00 10 1019.8
20260905044444 56 216 1.0 3.0 0.00 0.00 0.00 10 1019.9
20260905044007 56 222 3.0 4.0 0.00 0.00 0.00 10 1019.8
20260905043529 56 214 2.0 3.0 0.00 0.00 0.00 10 1020.0
20260905043052 56 259 1.0 2.0 0.00 0.00 0.00 10 1020.1
20260905042614 57 292 1.0 2.0 0.00 0.00 0.00 10 1020.1
20260905042137 57 272 1.0 2.0 0.00 0.00 0.00 10 1020.2
20260905041659 57 266 1.0 3.0 0.00 0.00 0.00 10 1020.1
20260905041221 58 257 1.0 2.0 0.00 0.00 0.00 10 1020.0
20260905040744 58 277 1.0 2.0 0.00 0.00 0.00 10 1019.6
20260905040306 59 254 1.0 2.0 0.00 0.00 0.00 10 1019.1
20260905035829 59 197 0.0 2.0 0.00 0.00 0.00 10 1019.2
20260905035351 59 326 1.0 3.0 0.00 0.00 0.00 10 1019.4
20260905034913 59 327 2.0 3.0 0.00 0.00 0.00 10 1019.3
20260905034436 58 279 0.0 2.0 0.00 0.00 0.00 10 1019.6
20260905033958 58 230 0.0 0.0 0.00 0.00 0.00 10 1019.9
20260905033520 58 228 0.0 0.0 0.00 0.00 0.00 10 1019.4
20260905033043 58 180 0.0 0.0 0.00 0.00 0.00 10 1019.2
20260905032605 59 180 0.0 0.0 0.00 0.00 0.00 10 1018.9
20260905032128 59 180 0.0 0.0 0.00 0.00 0.00 10 1018.7
20260905031650 59 259 0.0 0.0 0.00 0.00 0.00 10 1018.8
20260905030735 59 225 0.0 0.0 0.00 0.00 0.00 10 1018.3
20260905030257 59 225 0.0 0.0 0.00 0.00 0.00 10 1018.1
20260905025819 59 224 2.0 3.0 0.00 0.00 0.00 10 1018.4
20260905025342 59 199 0.0 2.0 0.00 0.00 0.00 10 1018.2
20260905024904 59 225 0.0 1.0 0.00 0.00 0.00 10 1018.5
20260905024426 59 196 0.0 2.0 0.00 0.00 0.00 10 1018.7
20260905023949 60 222 1.0 2.0 0.00 0.00 0.00 10 1018.7
20260905023511 60 277 1.0 1.0 0.00 0.00 0.00 10 1018.5
20260905023034 60 233 0.0 2.0 0.00 0.00 0.00 10 1018.6
20260905022556 60 231 0.0 1.0 0.00 0.00 0.00 10 1018.4
20260905022118 60 268 0.0 2.0 0.00 0.00 0.00 10 1018.6
20260905021640 60 282 1.0 2.0 0.00 0.00 0.00 10 1018.6
20260905021203 60 293 2.0 3.0 0.00 0.00 0.00 10 1018.7
20260905020725 60 302 1.0 2.0 0.00 0.00 0.00 10 1018.5
20260905015810 61 294 1.0 3.0 0.00 0.00 0.00 10 1017.9
20260905015332 61 294 1.0 3.0 0.00 0.00 0.00 10 1017.7
20260905013939 61 343 4.0 6.0 0.00 0.00 0.00 10 1017.9
20260905013501 62 328 3.0 5.0 0.00 0.00 0.00 10 1017.8
20260905013024 62 324 3.0 5.0 0.00 0.00 0.00 10 1017.6
20260905012546 62 334 3.0 5.0 0.00 0.00 0.00 10 1017.5
20260905012108 62 301 2.0 4.0 0.00 0.00 0.00 10 1017.5
20260905011153 62 285 2.0 3.0 0.00 0.00 0.00 10 1017.5
20260905010715 62 297 1.0 2.0 0.00 0.00 0.00 10 1017.6
20260905010237 62 290 1.0 3.0 0.00 0.00 0.00 10 1017.5
20260905005800 62 309 2.0 3.0 0.00 0.00 0.00 10 1017.3
20260905005322 62 303 1.0 3.0 0.00 0.00 0.00 10 1017.4
20260905004844 63 312 1.0 2.0 0.00 0.00 0.00 10 1017.4
20260905004406 63 325 3.0 6.0 0.00 0.00 0.00 10 1017.6
20260905003929 63 333 4.0 5.0 0.00 0.00 0.00 10 1017.5
20260905003451 64 324 4.0 7.0 0.00 0.00 0.00 10 1017.3
20260905003013 64 333 4.0 7.0 0.00 0.00 0.00 10 1017.2
20260905002535 64 311 3.0 6.0 0.00 0.00 0.00 10 1017.1
20260905002057 64 324 4.0 5.0 0.00 0.00 0.00 10 1016.9
20260905000704 64 326 3.0 5.0 0.00 0.00 0.00 10 1016.9
20260905000226 65 312 3.0 5.0 0.00 0.00 0.00 10 1016.9
20260904235748 65 323 2.0 5.0 0.00 0.00 0.00 10 1016.8
20260904235311 65 312 4.0 7.0 0.00 0.00 0.00 10 1016.8
20260904234833 66 303 2.0 5.0 0.00 0.00 0.00 10 1016.3
20260904234355 66 321 4.0 6.0 0.00 0.00 0.00 10 1016.1
20260904233917 66 315 3.0 4.0 0.00 0.00 0.00 10 1015.7
20260904233439 66 340 3.0 4.0 0.00 0.00 0.00 10 1015.7
20260904233001 66 325 4.0 5.0 0.00 0.00 0.00 10 1015.7
20260904231607 66 332 5.0 8.0 0.00 0.00 0.00 10 1015.3
20260904231129 66 321 4.0 8.0 0.00 0.00 0.00 10 1015.1
20260904230651 66 328 5.0 8.0 0.00 0.00 0.00 10 1015.0
20260904230213 67 317 6.0 0.0 0.00 0.00 0.00 10 1014.9
20260904225735 67 324 4.0 7.0 0.00 0.00 0.00 10 1014.7
20260904225259 67 339 4.0 6.0 0.00 0.00 0.00 10 1014.6
20260904223903 68 322 1.0 2.0 0.00 0.00 0.00 10 1014.0
20260904223426 68 253 0.0 0.0 0.00 0.00 0.00 10 1013.6
20260904222947 68 250 1.0 2.0 0.00 0.00 0.00 10 1013.5
20260904222510 69 280 1.0 2.0 0.00 0.00 0.00 10 1013.6
20260904222032 69 319 1.0 4.0 0.00 0.00 0.00 10 1013.6
20260904221115 69 282 1.0 2.0 0.00 0.00 0.00 10 1013.4
20260904220637 70 324 2.0 3.0 0.00 0.00 0.00 10 1013.4
20260904220159 70 309 1.0 2.0 0.00 0.00 0.00 10 1013.2
20260904215721 71 290 0.0 1.0 0.00 0.00 0.00 10 1013.1
20260904215243 71 288 1.0 2.0 0.00 0.00 0.00 10 1013.0
20260904214805 72 307 2.0 4.0 0.00 0.00 0.00 10 1013.0
20260904214327 72 304 1.0 2.0 0.00 0.00 0.00 10 1013.0
20260904213849 73 331 3.0 8.0 0.00 0.00 0.00 10 1013.0
20260904213410 74 228 3.0 4.0 0.00 0.00 0.00 10 1013.0
20260904212932 74 218 3.0 5.0 0.00 0.00 0.00 10 1012.6
20260904212454 74 212 4.0 4.0 0.00 0.00 0.00 10 1012.4
20260904211537 74 219 3.0 4.0 0.00 0.00 0.00 10 1012.4
20260904211059 74 215 3.0 4.0 0.00 0.00 0.00 10 1012.4
20260904210621 74 225 3.0 4.0 0.00 0.00 0.00 10 1012.4
20260904205705 74 219 4.0 5.0 0.00 0.00 0.00 10 1012.4
20260904205226 74 222 4.0 4.0 0.00 0.00 0.00 10 1012.4
20260904204748 74 219 3.0 4.0 0.00 0.00 0.00 10 1012.5
20260904204310 74 222 3.0 4.0 0.00 0.00 0.00 10 1012.6
20260904203832 74 222 3.0 5.0 0.00 0.00 0.00 10 1012.6
20260904203353 74 213 3.0 4.0 0.00 0.00 0.00 10 1012.7
20260904202915 74 219 3.0 4.0 0.00 0.00 0.00 10 1012.7
20260904202437 74 219 3.0 4.0 0.00 0.00 0.00 10 1012.8
20260904201959 74 225 3.0 3.0 0.00 0.00 0.00 10 1012.8
20260904201520 74 225 3.0 4.0 0.00 0.00 0.00 10 1012.8
20260904201042 74 219 3.0 3.0 0.00 0.00 0.00 10 1012.9
20260904200604 74 222 3.0 3.0 0.00 0.00 0.00 10 1012.9
20260904200126 74 225 3.0 3.0 0.00 0.00 0.00 10 1012.9
20260904195648 74 222 3.0 3.0 0.00 0.00 0.00 10 1012.9
20260904195209 74 225 3.0 3.0 0.00 0.00 0.00 10 1013.0
20260904194731 75 218 3.0 4.0 0.00 0.00 0.00 10 1013.1
20260904194253 75 221 3.0 3.0 0.00 0.00 0.00 10 1013.0
20260904193815 75 219 3.0 3.0 0.00 0.00 0.00 10 1013.1
20260904193336 75 221 3.0 3.0 0.00 0.00 0.00 10 1013.1
20260904192858 75 216 3.0 3.0 0.00 0.00 0.00 10 1013.1
20260904192420 75 215 3.0 3.0 0.00 0.00 0.00 10 1013.1
20260904191941 75 222 3.0 3.0 0.00 0.00 0.00 10 1013.1
20260904191503 75 216 3.0 4.0 0.00 0.00 0.00 10 1013.0
20260904191025 75 222 3.0 4.0 0.00 0.00 0.00 10 1013.1
20260904190547 75 222 3.0 3.0 0.00 0.00 0.00 10 1013.1
20260904190108 75 221 3.0 4.0 0.00 0.00 0.00 10 1013.1
20260904185630 75 224 3.0 3.0 0.00 0.00 0.00 10 1013.1
20260904185152 75 219 3.0 3.0 0.00 0.00 0.00 10 1013.1
20260904184713 75 219 3.0 4.0 0.00 0.00 0.00 10 1013.1
20260904184235 75 225 3.0 3.0 0.00 0.00 0.00 10 1013.1
20260904183319 75 218 3.0 4.0 0.00 0.00 0.00 10 1013.1
20260904182840 75 213 2.0 3.0 0.00 0.00 0.00 10 1013.3
20260904182402 75 203 2.0 2.0 0.00 0.00 0.00 10 1013.4
20260904181924 75 196 2.0 2.0 0.00 0.00 0.00 10 1013.5
20260904181445 75 180 2.0 2.0 0.00 0.00 0.00 10 1013.5
20260904181007 75 203 2.0 2.0 0.00 0.00 0.00 10 1013.5
20260904180529 75 199 1.0 2.0 0.00 0.00 0.00 10 1013.4
20260904180050 75 180 0.0 0.0 0.00 0.00 0.00 10 1013.4
20260904175612 75 180 0.0 0.0 0.00 0.00 0.00 10 1013.4